Regional Weather Roundup
Issued by NWS

Home | Current Version | Previous Version | Graphics & Text | Print | Product List | Glossary On
Versions: 1 2 3 4 5 6 7 8 9 10 11 12 13 14 15 16 17 18 19 20 21 22 23 24 25 26 27 28 29 30 31 32 33 34 35 36 37 38 39 40 41 42 43 44 45 46 47 48 49 50
000
ASUS43 KDMX 301001
RWRIA

WEATHER ROUNDUP FOR IOWA
NATIONAL WEATHER SERVICE DES MOINES IA
500 AM CDT THU MAR 30 2017

NOTE: "FAIR" INDICATES FEW OR NO CLOUDS BELOW 12,000 FEET WITH NO
SIGNIFICANT WEATHER AND/OR OBSTRUCTIONS TO VISIBILITY.

* - THESE STATIONS ARE NOT NWS STATIONS...THUS NOT UNDER NWS
QUALITY CONTROL.  THEY ALSO DO NOT REPORT WEATHER SUCH
AS PRECIPITATION OR FOG.

IAZ001>003-012>014-020>022-031>034-043>046-301100-
   NORTHWEST IOWA

CITY           SKY/WX    TMP DP  RH WIND       PRES   REMARKS
CARROLL *      CLOUDY    39  39 100 NE18G25   29.71F FOG     WCI  30
CHEROKEE *     CLOUDY    38  38 100 NE13G18   29.80F FOG     WCI  30
DENISON *      CLOUDY    39  39 100 NE10G22   29.74F FOG     WCI  32
LE MARS *      CLOUDY    39  37  93 NE14      29.83F WCI  31
ORANGE CITY *  CLOUDY    37  37 100 NE13G20   29.83S WCI  29
SHELDON *      CLOUDY    37  36  93 NE18G25   29.82F FOG     WCI  27
SIOUX CITY     CLOUDY    39  38  96 NE16      29.81S WCI  30
SPENCER        CLOUDY    37  36  96 NE22      29.82F FOG     WCI  26
STORM LAKE *   CLOUDY    37  37 100 NE20      29.77F FOG     WCI  27
$$

IAZ055>058-069>071-079>083-090>094-301100-
   SOUTHWEST IOWA

CITY           SKY/WX    TMP DP  RH WIND       PRES   REMARKS
ATLANTIC *     CLOUDY    41  41 100 NE16      29.67F FOG
AUDUBON *      CLOUDY    39  37  93 NE15      29.70F FOG     WCI  31
CLARINDA *     CLOUDY    45  45 100 NE9       29.67R
COUNCIL BLFS * CLOUDY    41  41 100 N16       29.68S FOG
CRESTON *      CLOUDY    41  41 100 E20       29.62S
HARLAN  *      CLOUDY    41  41 100 NE16G23   29.72F
LAMONI         CLOUDY    44  43  96 E10       29.59F
RED OAK *      CLOUDY    43  43 100 N16G22    29.66S FOG
SHENANDOAH *   CLOUDY    45  43  93 NE16      29.65S FOG
$$

IAZ047>049-059>061-072>074-084-301100-
   CENTRAL IOWA

CITY           SKY/WX    TMP DP  RH WIND       PRES   REMARKS
AMES           CLOUDY    41  41 100 NE9G22    29.71F
ANKENY *       CLOUDY    43  39  87 NE16G23   29.67F
BOONE *        CLOUDY    39  39 100 NE21G30   29.68F WCI  29
CHARITON *     CLOUDY    43  41  93 E15       29.62F FOG
DES MOINES     CLOUDY    44  40  85 E15G28    29.66F
GRINNELL*      CLOUDY    41  39  95 NE17      29.71F
MARSHALLTOWN   CLOUDY    41  40  96 NE15      29.73F
NEWTON *       CLOUDY    41  39  93 NE22      29.66F
PELLA *        CLOUDY    42  41  98 E14G21    29.68F
PERRY *        CLOUDY    42  40  94 NE17G23   29.68F
$$

IAZ004>006-015-016-023>025-035-036-301100-
   NORTH CENTRAL IOWA

CITY           SKY/WX    TMP DP  RH WIND       PRES   REMARKS
ALGONA *       CLOUDY    39  39 100 NE18      29.81F WCI  30
CLARION *      CLOUDY    39  39 100 E22       29.77F FOG     WCI  29
ESTHERVILLE    CLOUDY    36  36 100 NE17      29.84F FOG     WCI  26
FORT DODGE *   CLOUDY    39  36  87 NE17      29.77F WCI  30
MASON CITY     CLOUDY    37  35  92 NE15      29.83F FOG     WCI  28
FOREST CITY *  CLOUDY    36  36 100 E13G23    29.81F FOG     WCI  27
WEBSTER CITY * CLOUDY    39  39 100 NE20G25   29.73F FOG     WCI  30
IOWA FALLS *   DRIZZLE   40  39  95 NE13      29.77F WCI  33
$$

IAZ007>011-017>019-026>030-037>042-050>054-066-301100-
   NORTHEAST IOWA

CITY           SKY/WX    TMP DP  RH WIND       PRES   REMARKS
CEDAR RAPIDS   RAIN      41  41 100 E12       29.75R FOG
CHARLES CITY * CLOUDY    37  37 100 NE14G22   29.83S WCI  29
CLINTON *      LGT RAIN  42  40  92 E20       29.75F
DECORAH *      CLOUDY    36  36 100 NE12G17   29.84F WCI  27
DUBUQUE        CLOUDY    40  38  93 E14G26    29.76F WCI  32
MONTICELLO *   LGT RAIN  41  39  93 NE10      29.77R
OELWEIN *      CLOUDY    39  39 100 E16G24    29.79S WCI  30
WATERLOO       CLOUDY    41  38  89 E14       29.78F
$$

IAZ064-065-067-068-078-301100-
   EAST CENTRAL IOWA

CITY           SKY/WX    TMP DP  RH WIND       PRES   REMARKS
DAVENPORT      CLOUDY    42  40  92 E20       29.73F
IOWA CITY      HVY RAIN  44  41  89 NE7       29.76R FOG
MUSCATINE *    CLOUDY    45  41  87 E17       29.70F
QUAD CITIES    CLOUDY    44  41  89 E21G26    29.72F
$$

IAZ062-063-075>077-085>089-095>099-301100-
   SOUTHEAST IOWA

CITY           SKY/WX    TMP DP  RH WIND       PRES   REMARKS
BURLINGTON     TSTM      46  46 100 E13G20    29.64F FOG
FAIRFIELD *    CLOUDY    45  43  93 NE15G21   29.66F
FORT MADISON * LGT RAIN  46  46 100 E16       29.64F
KEOKUK *       CLOUDY    48  48 100 E15       29.63F
OSKALOOSA *    MOCLDY    42  41  97 E16G22    29.66F
CENTERVILLE *  CLOUDY    41  41 100 NE16      29.63F
OTTUMWA        CLOUDY    43  43 100 NE15      29.65F
WASHINGTON *   CLOUDY    43  43 100 NE14      29.71F
$$

ABBREVIATIONS USED IN REMARKS
   TC - TEMPERATURES IN CELSIUS
  WCI - WIND CHILL INDEX
   HX - HEAT INDEX
  VSB - VISIBILITY
$$





USA.gov is the U.S. government's official web portal to all federal, state and local government web resources and services.